Wind_Speed
23 23 24 25 25 25 25 24 25 25 26 25 26 27 27 27 27 27 27 28 27 27 26 26 26 27 28 28 27 26 26 26 26 26 27 27 28 28 27 27 27 26 26
24 24 25 26 26 26 27 27 27 27 27 27 28 28 28 28 28 28 28 27 27 27 27 27 27 27 29 29 29 28 28 28 28 27 27 28 28 28 28 28 27 27 27
25 26 26 27 27 27 28 28 28 28 29 29 29 28 28 28 28 28 28 28 28 28 28 28 29 29 30 30 30 29 29 29 29 29 28 28 28 28 29 29 28 28 28
27 27 28 29 29 29 29 30 30 30 30 30 30 30 29 29 29 29 29 29 29 29 29 29 29 30 30 30 29 29 29 30 31 31 31 30 29 29 30 30 30 30 30
29 29 29 30 30 30 30 31 31 31 31 31 31 31 30 30 30 30 30 30 30 30 30 30 29 30 30 30 30 29 30 30 31 31 31 31 30 30 30 31 31 31 30
30 30 30 31 31 31 32 32 33 33 32 32 32 31 31 31 31 31 31 31 31 31 31 31 30 30 31 30 30 30 31 31 31 32 32 32 32 31 31 31 31 31 30
30 31 32 32 32 32 32 33 33 34 33 33 33 33 32 32 32 32 33 32 32 31 31 31 31 31 31 31 31 31 31 32 32 32 32 32 32 31 31 32 32 32 31
30 31 32 32 33 33 33 33 33 34 33 33 33 33 33 33 33 33 33 33 33 32 33 33 33 33 32 32 32 32 33 33 33 32 32 32 32 32 32 33 33 32 31
30 31 31 32 33 34 34 34 35 34 34 34 34 34 34 34 34 33 34 34 34 34 34 34 34 34 34 34 34 34 34 35 34 33 33 33 34 34 34 34 33 33 32
29 30 31 32 33 34 35 35 35 35 35 36 36 35 35 34 34 34 35 35 35 35 35 35 35 35 35 35 35 35 35 35 35 35 34 34 34 35 35 34 34 33 33
30 30 31 32 33 34 35 35 35 35 35 36 36 36 36 36 35 35 36 36 37 36 36 36 36 36 36 36 36 36 36 35 35 36 36 35 34 34 34 34 34 34 33
31 31 31 32 33 34 34 35 35 35 35 36 36 36 37 37 36 36 37 38 38 38 37 37 37 37 37 37 36 36 36 35 35 36 36 35 35 34 33 33 33 34 34
31 31 31 31 32 33 33 34 34 35 36 36 36 36 37 37 37 37 38 38 39 38 38 38 38 38 38 37 37 36 35 35 35 34 35 35 35 34 34 34 34 34 34
32 32 32 32 32 33 33 34 35 36 37 37 37 37 37 37 37 38 38 39 39 38 38 38 38 38 37 37 36 36 35 35 34 34 34 34 34 35 35 34 34 34 34
33 33 33 34 34 33 33 34 34 35 37 37 37 37 37 37 37 38 38 39 39 39 39 38 38 37 37 35 35 35 34 34 34 34 34 34 34 34 34 34 34 33 33
33 33 34 34 34 34 34 34 35 35 36 37 37 37 37 37 37 37 38 38 38 38 38 38 37 36 35 34 34 34 34 34 34 34 34 33 33 32 32 33 33 33 33
34 34 34 34 34 34 34 35 35 35 36 37 36 36 36 36 36 37 38 38 37 36 36 35 34 34 34 33 33 33 33 33 33 32 32 32 32 31 31 32 32 32 31
35 35 34 34 34 34 35 35 35 35 35 35 35 35 36 36 36 36 36 36 35 34 34 34 33 32 32 31 30 30 30 30 30 30 30 30 30 30 30 31 31 31 31
35 35 34 35 35 35 35 35 35 35 35 35 35 35 36 36 35 35 35 34 34 33 33 32 31 30 29 29 28 28 28 27 27 27 27 27 28 28 29 29 29 29 30
35 35 35 35 35 35 35 35 35 35 35 35 34 34 34 34 33 33 33 33 32 32 32 31 30 29 28 27 26 25 25 25 24 24 25 25 26 27 28 28 27 28 28
35 35 35 35 35 35 35 35 35 35 35 33 33 32 32 32 31 31 31 31 31 31 30 29 28 26 25 24 24 24 23 23 23 24 24 24 24 25 25 25 26 27 26
34 34 34 35 35 35 35 35 34 34 33 32 31 31 30 30 30 30 30 30 30 29 28 27 26 25 24 23 23 23 23 23 23 24 24 24 24 24 24 24 25 26 26
33 33 34 34 34 34 33 33 33 32 32 31 30 30 30 30 30 29 29 29 28 27 26 24 23 23 23 23 23 22 23 23 23 23 23 23 23 23 24 24 24 24 25
33 33 33 32 32 32 31 31 31 30 30 30 30 30 29 29 28 27 26 26 25 24 23 22 21 22 22 22 22 22 22 22 22 22 22 22 22 22 22 23 24 25 25
31 31 31 31 30 30 30 29 29 29 29 28 28 28 28 27 26 24 23 23 22 22 22 21 21 21 21 21 22 22 23 23 22 22 22 22 21 21 22 23 24 24 25
30 30 30 29 29 29 29 28 27 27 27 26 26 25 24 24 23 22 22 22 22 21 21 20 20 20 20 21 21 21 21 21 21 21 21 21 20 20 21 22 22 23 23
Wind_Direction
273 274 275 278 282 285 287 287 289 290 291 292 293 292 292 292 292 292 293 292 289 288 287 285 283 281 278 277 278 273 270 268 266 266 265 265 267 266 264 264 264 263 264
273 274 276 278 281 284 286 287 289 290 291 293 294 291 290 291 291 291 291 291 289 288 287 285 284 282 279 278 278 274 270 267 268 268 267 266 265 265 265 265 265 265 266
274 275 276 278 281 283 284 285 288 289 291 292 293 291 290 291 292 291 290 290 289 288 287 286 284 283 281 279 278 275 270 268 268 269 268 266 265 265 266 267 266 266 267
276 277 278 279 281 282 283 284 287 289 291 292 292 291 290 291 292 291 289 289 289 288 288 288 286 283 281 278 277 273 270 269 268 268 267 268 267 265 266 266 265 265 266
277 277 278 279 281 282 283 284 286 287 290 291 290 290 290 290 290 290 289 289 288 287 287 286 285 284 281 278 275 271 270 270 270 269 269 268 267 266 266 266 266 265 265
277 277 278 279 281 283 284 284 285 286 288 289 290 291 290 289 288 287 288 288 287 286 285 285 284 282 281 279 276 273 271 270 270 270 271 270 269 268 265 266 267 266 265
278 279 279 279 280 282 284 285 285 286 287 288 289 290 291 288 286 286 287 287 287 287 286 285 284 283 281 280 278 276 273 271 271 272 272 272 270 269 268 268 268 267 267
280 280 280 280 281 282 284 285 286 286 286 288 288 289 290 289 286 285 285 286 286 286 285 284 283 282 281 279 279 277 275 272 271 271 271 272 270 269 268 268 268 267 267
282 282 282 282 282 283 284 285 286 285 286 286 288 289 289 288 287 286 285 285 285 286 286 285 283 281 280 280 279 278 276 274 271 270 271 270 270 270 268 268 267 268 267
285 284 284 284 284 285 285 285 285 285 284 285 287 287 288 287 286 286 286 285 285 285 285 284 283 282 280 280 279 278 276 274 271 269 270 270 269 269 267 267 266 266 266
286 286 287 287 287 288 287 285 285 285 285 286 286 286 287 287 287 286 286 287 286 285 285 284 283 282 281 280 279 278 276 273 271 269 268 269 269 268 266 264 263 263 263
287 287 288 289 290 290 288 286 286 286 286 286 286 286 286 286 287 287 287 288 288 286 284 283 282 282 282 281 279 278 276 273 271 269 268 268 269 267 265 263 263 263 263
288 289 290 291 292 291 290 288 287 287 287 287 287 287 286 286 286 286 287 289 289 287 285 284 283 282 282 281 279 276 274 272 271 270 269 268 267 265 264 263 262 263 263
288 289 291 292 292 293 292 290 289 288 288 289 288 287 287 286 286 286 287 288 289 288 286 285 285 284 283 281 278 275 273 271 271 270 269 267 265 265 264 263 261 261 262
287 289 291 292 292 292 293 293 292 291 290 289 288 287 287 286 286 286 288 288 288 288 287 286 286 284 281 280 277 275 272 270 270 269 268 266 265 265 264 262 260 259 260
287 288 290 291 291 292 293 293 293 293 292 292 289 288 287 286 286 287 288 288 289 289 288 287 285 283 281 279 277 275 272 270 270 268 267 265 264 262 262 260 258 257 257
287 287 288 289 290 292 293 293 294 294 294 293 291 289 288 288 288 289 290 289 289 289 289 289 286 282 280 279 277 276 273 271 270 268 266 264 262 260 259 259 258 256 255
288 287 288 289 291 293 294 294 295 296 296 294 292 290 289 288 288 288 289 289 288 288 288 287 285 283 280 279 277 276 275 272 269 267 265 262 260 259 258 258 257 255 255
288 288 289 290 291 293 295 295 296 297 297 296 293 291 290 289 289 286 286 287 287 287 287 286 285 282 281 280 278 277 276 273 268 265 263 261 260 259 258 257 255 255 256
288 289 290 291 292 294 295 296 296 297 297 297 294 292 291 290 289 287 285 287 288 289 289 287 286 283 280 279 277 276 274 271 268 266 264 262 260 259 258 256 256 256 255
288 289 290 291 292 293 294 294 295 296 297 297 295 294 292 290 288 286 286 286 286 288 288 286 285 283 280 277 275 274 273 270 268 265 265 263 260 259 259 257 257 255 255
287 288 289 291 292 293 294 294 295 295 296 296 294 293 293 292 289 287 286 287 287 287 286 285 284 281 278 276 273 271 269 268 268 266 264 262 262 261 260 259 257 256 256
287 288 288 290 292 292 293 294 295 296 296 296 294 292 292 292 290 288 287 286 286 285 285 285 282 278 276 274 271 270 268 268 268 266 265 263 263 261 257 257 256 256 255
288 288 289 290 292 293 293 294 295 296 296 296 293 292 292 292 291 289 287 286 284 283 282 282 282 280 277 275 273 271 268 266 265 264 263 262 263 261 258 257 256 256 255
288 289 290 291 292 293 294 295 296 297 297 297 295 293 293 293 292 290 289 288 284 282 280 279 279 278 275 272 271 269 268 267 265 264 263 262 261 261 260 260 258 256 254
287 287 289 290 291 292 294 295 296 297 298 298 297 294 294 293 292 291 290 289 285 282 279 278 278 276 275 275 273 271 271 269 265 263 262 261 261 260 261 261 260 256 255
Height
5796 5796 5796 5796 5795 5793 5792 5791 5789 5787 5785 5783 5781 5779 5776 5774 5771 5769 5767 5764 5762 5760 5758 5756 5755 5754 5753 5753 5753 5754 5754 5755 5757 5759 5759 5760 5761 5761 5762 5763 5763 5764 5764
5790 5789 5789 5789 5788 5787 5785 5784 5782 5780 5778 5776 5773 5771 5769 5767 5764 5762 5759 5757 5754 5752 5751 5749 5748 5747 5746 5746 5745 5746 5746 5747 5748 5749 5751 5752 5752 5753 5754 5755 5755 5756 5756
5782 5782 5782 5781 5780 5779 5778 5776 5774 5772 5770 5768 5765 5763 5761 5759 5756 5754 5752 5749 5747 5745 5743 5742 5740 5739 5739 5737 5737 5737 5738 5739 5739 5741 5742 5743 5744 5744 5745 5746 5747 5748 5748
5775 5775 5774 5773 5772 5771 5770 5768 5766 5764 5762 5760 5757 5755 5753 5751 5749 5746 5744 5742 5740 5737 5736 5734 5733 5731 5730 5729 5728 5729 5729 5730 5730 5731 5733 5734 5735 5735 5736 5737 5738 5739 5739
5767 5766 5766 5765 5764 5763 5761 5760 5758 5756 5754 5751 5749 5747 5744 5742 5740 5738 5736 5734 5732 5730 5727 5726 5724 5723 5722 5720 5720 5720 5720 5720 5721 5722 5723 5724 5725 5726 5727 5728 5729 5729 5730
5758 5758 5757 5756 5755 5754 5752 5751 5749 5747 5745 5743 5740 5738 5736 5733 5731 5729 5727 5725 5723 5721 5719 5717 5715 5714 5713 5712 5711 5711 5711 5711 5712 5712 5713 5714 5715 5716 5716 5717 5718 5720 5721
5749 5748 5748 5747 5746 5745 5743 5742 5740 5738 5736 5733 5731 5729 5726 5724 5722 5720 5717 5716 5714 5712 5710 5708 5707 5705 5704 5703 5702 5702 5701 5701 5702 5703 5703 5704 5705 5705 5706 5707 5708 5709 5710
5740 5739 5738 5738 5737 5735 5734 5732 5730 5728 5726 5724 5722 5719 5717 5715 5712 5710 5708 5706 5704 5702 5700 5698 5697 5696 5694 5693 5693 5692 5692 5692 5692 5692 5693 5694 5694 5694 5695 5696 5697 5698 5699
5731 5730 5729 5728 5727 5726 5724 5722 5721 5719 5716 5714 5712 5710 5708 5706 5703 5701 5699 5697 5695 5693 5690 5688 5687 5685 5684 5683 5683 5682 5682 5682 5681 5682 5682 5683 5683 5684 5684 5685 5686 5687 5688
5723 5721 5720 5718 5717 5716 5714 5712 5710 5708 5706 5704 5703 5700 5698 5696 5694 5691 5689 5687 5685 5683 5681 5678 5676 5675 5673 5672 5671 5671 5671 5671 5671 5671 5671 5672 5672 5673 5673 5674 5675 5677 5678
5715 5713 5711 5709 5707 5705 5703 5701 5700 5698 5696 5694 5693 5691 5688 5686 5684 5681 5679 5677 5674 5672 5670 5668 5666 5664 5663 5661 5660 5660 5659 5659 5659 5660 5660 5660 5661 5662 5663 5664 5665 5666 5668
5707 5705 5703 5700 5698 5696 5693 5692 5690 5688 5686 5684 5682 5680 5678 5675 5673 5671 5668 5666 5663 5661 5659 5657 5655 5654 5652 5650 5649 5648 5648 5648 5648 5648 5649 5649 5650 5651 5652 5653 5655 5656 5657
5698 5696 5694 5692 5689 5686 5684 5682 5680 5677 5675 5674 5671 5669 5667 5664 5662 5660 5658 5655 5652 5650 5648 5646 5644 5642 5640 5639 5638 5637 5636 5636 5637 5637 5638 5639 5639 5640 5641 5643 5644 5645 5647
5690 5688 5685 5683 5680 5677 5674 5672 5669 5667 5665 5663 5661 5658 5656 5654 5651 5649 5647 5644 5642 5639 5637 5635 5632 5630 5629 5627 5626 5625 5625 5625 5626 5626 5627 5628 5628 5629 5631 5632 5633 5635 5636
5681 5679 5676 5674 5671 5668 5665 5662 5660 5657 5654 5652 5650 5647 5645 5643 5641 5638 5635 5633 5630 5628 5626 5623 5621 5619 5617 5616 5615 5614 5614 5614 5615 5615 5616 5616 5617 5618 5619 5621 5622 5624 5625
5671 5669 5667 5664 5662 5659 5656 5653 5649 5647 5644 5641 5638 5636 5634 5632 5629 5627 5624 5622 5619 5617 5614 5612 5610 5608 5606 5605 5604 5604 5603 5603 5603 5603 5604 5605 5606 5607 5608 5610 5611 5613 5615
5662 5659 5657 5655 5652 5649 5646 5643 5640 5637 5633 5630 5627 5624 5622 5620 5618 5615 5613 5610 5608 5606 5603 5601 5599 5597 5596 5595 5594 5593 5592 5592 5592 5592 5593 5594 5595 5596 5598 5599 5601 5603 5605
5652 5649 5647 5645 5642 5639 5636 5633 5630 5627 5624 5620 5617 5614 5611 5609 5606 5604 5602 5599 5597 5595 5593 5591 5589 5587 5585 5584 5583 5583 5582 5582 5582 5582 5583 5584 5585 5587 5588 5590 5592 5594 5596
5642 5640 5637 5635 5632 5629 5626 5623 5620 5617 5614 5610 5607 5604 5601 5598 5595 5593 5590 5589 5587 5585 5583 5581 5579 5577 5576 5575 5574 5574 5573 5573 5573 5573 5574 5575 5577 5578 5580 5581 5583 5585 5586
5632 5629 5627 5625 5622 5619 5616 5613 5610 5607 5603 5600 5597 5594 5590 5587 5585 5583 5580 5578 5577 5575 5573 5571 5569 5568 5567 5566 5566 5565 5565 5565 5565 5566 5566 5567 5569 5570 5572 5573 5575 5576 5578
5622 5620 5617 5615 5612 5609 5606 5603 5600 5597 5593 5590 5587 5583 5580 5578 5575 5573 5571 5569 5567 5566 5564 5562 5561 5559 5558 5558 5557 5557 5557 5558 5558 5558 5559 5560 5561 5562 5563 5565 5566 5568 5569
5612 5610 5607 5605 5602 5599 5596 5593 5590 5587 5584 5581 5577 5574 5571 5569 5566 5564 5562 5560 5558 5556 5555 5554 5552 5551 5551 5550 5550 5550 5550 5551 5551 5551 5552 5553 5553 5554 5555 5557 5558 5560 5561
5602 5600 5597 5595 5592 5589 5586 5583 5580 5577 5574 5571 5568 5566 5563 5560 5557 5555 5553 5551 5549 5548 5546 5545 5544 5544 5543 5543 5543 5543 5543 5543 5543 5544 5544 5545 5546 5547 5548 5549 5550 5552 5553
5592 5590 5587 5585 5582 5580 5577 5574 5571 5568 5565 5562 5559 5557 5554 5551 5549 5547 5544 5542 5541 5539 5538 5538 5537 5537 5536 5536 5536 5536 5536 5536 5536 5536 5537 5538 5539 5539 5540 5541 5543 5544 5546
5582 5580 5578 5576 5573 5571 5568 5566 5563 5560 5557 5554 5551 5548 5546 5543 5541 5539 5537 5535 5533 5532 5531 5531 5530 5530 5529 5529 5529 5529 5529 5529 5529 5529 5530 5531 5532 5532 5533 5534 5535 5536 5538
5572 5571 5568 5566 5564 5562 5560 5557 5555 5552 5549 5546 5543 5541 5538 5536 5534 5532 5530 5528 5527 5526 5524 5524 5523 5522 5522 5522 5521 5521 5522 5522 5522 5522 5523 5524 5524 5525 5526 5527 5528 5529 5531